Погода в Котори

Россия / Калужская область     54°02′42″N   34°55′59″E
темп.,
°C
ветер,
м/с
пор.,
м/с
влажн.,
%
обл.,
%
осадки,
мм/ч
давл.,
гПа
погр.,
м
25 июля, вс
вс2500:00+12всв22700 0.0 101820
03:00+11св11753 0.0 101910
06:00+12в117414 0.0 102016
09:00+19в12555 0.0 1020363
12:00+23всв11447 0.0 10201386
15:00+22всв1154100 0.0 1020936
18:00+20юв236797 0.0 1021100
21:00+18ююв2266100 0.0 102136
26 июля, пн
пн2600:00+17юв226898 0.0 102229
03:00+16юв2367100 0.0 102259
06:00+16ю227778 0.0 102357
09:00+19юз137585 0.0 1023209
12:00+23з125873 0.0 1023794
15:00+26вюв124774 0.0 10221610
18:00+22вюв116684 0.0 102279
21:00+18ю237616 0.0 102240
27 июля, вт
вт2700:00+18ююз237857 0.1 102262
03:00+16з118724 0.1 102311
06:00+16ююз229171 0.8 102331
09:00+21ююз237735 1.8 1023271
12:00+26юз23485 0.0 10211246
15:00+28ююз234187 0.0 10202165
18:00+26ю24576 0.0 1019253
21:00+21юв236931 0.0 101961
28 июля, ср
ср2800:00+18ю227894 0.3 101935
03:00+16ююз2384100 0.3 101856
06:00+18юв2676100 0.0 1016131
09:00+18в1177100 0.1 101514
12:00+16вюв3695100 3.3 1015211
15:00+21ю5107897 3.3 1012849
18:00+20юз41089100 0.6 1011525
21:00+19зюз269733 2.7 1010168
29 июля, чт
чт2900:00+18зюз38978 0.0 1010179
03:00+17зюз369611 0.0 1010111
06:00+17з299710 0.3 1010208
09:00+21зсз48765 0.3 1010450
12:00+25з5754100 0.0 10101744
15:00+27зсз584520 0.0 10092289
18:00+26зсз48537 0.0 10091002
21:00+20зюз22690 0.0 101033